Caldwell, NJ

4:54 PM EDT on April 23, 2017 (GMT -0400)
Essex County

Weather History for KCDW - July, 2012

Change the Weather History Date:

Thursday, July 26, 2012

  Actual Average Record
Temperature  
Mean Temperature 79 °F -  
Max Temperature 90 °F 83 °F 96 °F (2005)
Min Temperature 68 °F 61 °F 49 °F (1984)
Cooling Degree Days 14    
Growing Degree Days 29 (Base 50)    
Moisture  
Dew Point 66 °F    
Average Humidity 75    
Maximum Humidity 94    
Minimum Humidity 53    
Precipitation  
Precipitation 0.46 in - - ()
Sea Level Pressure  
Sea Level Pressure 29.73 in    
Wind  
Wind Speed 2 mph (SSW)    
Max Wind Speed 9 mph    
Max Gust Speed 21 mph    
Visibility 9 miles    
Events Rain    
Averages and records for this station are not official NWS values.
T = Trace of Precipitation, MM = Missing Value Source: NWS Daily Summary

Daily Weather History Graph

Daily Weather History Graph

Search for Another Location

Airport or City:

Trip Planner

Search our weather history database for the weather conditions in past years. The results will help you decide how hot, cold, wet, or windy it might be!

Date:

Astronomy

Jul. 26, 2012 Rise Set
Actual Time 5:48 AM EDT 8:18 PM EDT
Civil Twilight 5:16 AM EDT 8:49 PM EDT
Nautical Twilight 4:37 AM EDT 9:28 PM EDT
Astronomical Twilight 3:53 AM EDT 10:12 PM EDT
Moon 2:02 PM EDT (7/26) No Moon Set
Length of Visible Light 15h 33m
Length of Day
14h 30m
First Quarter, 53% of the Moon is Illuminated
Jul 26
First Quarter
Aug 1
Full
Aug 9
Last Quarter
Aug 17
New
Aug 24
First Quarter

Hourly Weather History & Observations

Time (EDT) Temp. Heat Index Dew Point Humidity Pressure Visibility Wind Dir Wind Speed Gust Speed Precip Events Conditions
12:53 AM 72.0 °F - 57.9 °F 61% 29.82 in 10.0 mi Calm Calm - N/A   Clear
1:53 AM 71.1 °F - 57.9 °F 63% 29.81 in 10.0 mi Calm Calm - N/A   Clear
2:53 AM 72.0 °F - 57.0 °F 59% 29.80 in 10.0 mi Calm Calm - N/A   Clear
3:53 AM 71.1 °F - 57.0 °F 61% 29.79 in 10.0 mi Calm Calm - N/A   Overcast
4:53 AM 70.0 °F - 57.0 °F 63% 29.79 in 10.0 mi Calm Calm - N/A   Clear
5:53 AM 71.1 °F - 57.0 °F 61% 29.79 in 10.0 mi Calm Calm - N/A   Partly Cloudy
6:53 AM 70.0 °F - 59.0 °F 68% 29.78 in 10.0 mi Calm Calm - N/A   Scattered Clouds
7:53 AM 72.0 °F - 59.0 °F 64% 29.76 in 10.0 mi Variable 3.5 mph - N/A   Mostly Cloudy
8:53 AM 72.0 °F - 61.0 °F 68% 29.82 in 10.0 mi Variable 4.6 mph - N/A   Overcast
9:30 AM 68.0 °F - 62.6 °F 83% 29.75 in 0.8 mi SSW 4.6 mph - 0.23 in Rain Rain
9:34 AM 68.0 °F - 64.4 °F 88% 29.75 in 2.0 mi Variable 3.5 mph - 0.23 in Rain Light Rain
9:41 AM 69.8 °F - 64.4 °F 83% 29.74 in 7.0 mi Calm Calm - 0.23 in Rain Light Rain
9:53 AM 69.1 °F - 64.9 °F 87% 29.74 in 10.0 mi SSW 4.6 mph - 0.23 in Rain Light Rain
10:53 AM 71.1 °F - 66.9 °F 87% 29.74 in 9.0 mi Variable 4.6 mph - 0.03 in   Scattered Clouds
11:39 AM 75.2 °F - 68.0 °F 78% 29.72 in 10.0 mi Calm Calm - N/A   Mostly Cloudy
11:53 AM 75.9 °F - 68.0 °F 76% 29.73 in 10.0 mi SSW 5.8 mph - N/A   Scattered Clouds
12:53 PM 80.1 °F 82.7 °F 68.0 °F 67% 29.71 in 10.0 mi Variable 4.6 mph - N/A   Partly Cloudy
1:53 PM 82.0 °F 85.5 °F 69.1 °F 65% 29.70 in 10.0 mi SSW 9.2 mph - N/A   Clear
2:53 PM 87.1 °F 92.0 °F 70.0 °F 57% 29.67 in 10.0 mi Variable 3.5 mph - N/A   Clear
3:53 PM 89.1 °F 94.1 °F 70.0 °F 53% 29.65 in 10.0 mi Variable 4.6 mph - N/A   Clear
4:53 PM 89.1 °F 94.1 °F 70.0 °F 53% 29.65 in 10.0 mi Variable 3.5 mph - N/A   Clear
5:53 PM 90.0 °F 96.4 °F 71.1 °F 54% 29.63 in 10.0 mi SW 4.6 mph - N/A   Clear
6:53 PM 89.1 °F 96.0 °F 72.0 °F 57% 29.66 in 10.0 mi SW 4.6 mph - N/A   Partly Cloudy
7:34 PM 73.4 °F - 66.2 °F 78% 29.69 in 1.8 mi Variable 4.6 mph 20.7 mph 0.14 in Rain Heavy Rain
7:41 PM 73.4 °F - 68.0 °F 83% 29.69 in 3.0 mi South 4.6 mph - 0.15 in Rain Light Rain
7:53 PM 73.0 °F - 69.1 °F 87% 29.69 in 8.0 mi Variable 3.5 mph - 0.16 in Rain Light Rain
8:53 PM 73.0 °F - 69.1 °F 87% 29.70 in 5.0 mi Calm Calm - 0.03 in Rain Light Rain
9:53 PM 73.0 °F - 70.0 °F 90% 29.73 in 10.0 mi Variable 4.6 mph - 0.01 in Rain Light Rain
10:29 PM 71.6 °F - 69.8 °F 94% 29.73 in 10.0 mi Variable 3.5 mph - 0.00 in   Scattered Clouds
10:53 PM 72.0 °F - 69.1 °F 91% 29.74 in 10.0 mi SSW 4.6 mph - 0.00 in   Mostly Cloudy
11:01 PM 71.6 °F - 69.8 °F 94% 29.73 in 10.0 mi Variable 4.6 mph - N/A   Scattered Clouds
11:32 PM 71.6 °F - 69.8 °F 94% 29.73 in 10.0 mi Variable 4.6 mph - 0.00 in Rain Light Rain
11:42 PM 71.6 °F - 69.8 °F 94% 29.73 in 10.0 mi Variable 3.5 mph - 0.00 in   Mostly Cloudy
11:51 PM 71.6 °F - 69.8 °F 94% 29.73 in 10.0 mi Variable 4.6 mph - 0.00 in Rain Light Rain
11:53 PM 72.0 °F - 69.1 °F 91% 29.74 in 10.0 mi Variable 4.6 mph - 0.00 in Rain Light Rain